Regional Weather Roundup
Issued by NWS New Orleans/Baton Rouge, LA

Home | Current Version | Previous Version | Text Only | Print | Product List | Glossary Off
Versions: 1 2 3 4 5 6 7 8 9 10 11 12 13 14 15 16 17 18 19 20 21 22 23 24 25 26 27 28 29 30 31 32 33 34 35 36 37 38 39

005
ASUS44 KLIX 020501
RWRLIX
NEW ORLEANS REGIONAL WEATHER ROUNDUP
NATIONAL WEATHER SERVICE NEW ORLEANS LA
1200 AM CDT TUE SEP 02 2014

NOTE: "FAIR" INDICATES FEW OR NO CLOUDS BELOW 12,000 FEET WITH NO
      SIGNIFICANT WEATHER AND/OR OBSTRUCTIONS TO VISIBILITY.
      SKY/WX - SKY CONDITION AND SIGNIFICANT WEATHER.
      TMP - AIR TEMPERATURE.     DP    - DEWPOINT TEMPERATURE.
      RH  - RELATIVE HUMIDITY.   PRES  - PRESSURE.
      HI  - HEAT INDEX.          WCI   - WIND CHILL INDEX.

*  THESE STATIONS ARE NOT NWS OR FAA STATIONS AND ARE NOT UNDER
   NWS QUALITY CONTROL.

LAZ038-040-048-061>063-065>067-069-020600-
SOUTHEAST LOUISIANA

CITY           SKY/WX    TMP DP  RH WIND       PRES   REMARKS
N.O. AUDUBON     N/A     82  79  91 MISG        N/A
N.O. INTL ARPT MOCLDY    81  75  82 S9        30.02F
N.O. LAKEFRONT MOCLDY    79  75  87 SE7       30.03F
N.O. DOWNTOWN*   N/A     81  73  78 CALM      30.03F
SLIDELL        CLOUDY    77  74  90 CALM      30.01F
BATON ROUGE    CLOUDY    79  75  87 SE5       30.00F
BOOTHVILLE     MOCLDY    82  78  88 SE5       30.05S
BELLE CHASSE   MOCLDY    81  74  79 S5        30.02F
BOGALUSA*        N/A     79  74  84 CALM      30.03F
GALLIANO*      NOT AVBL
NEW ROADS*       N/A     76  76  97 CALM      30.01S
GONZALES*        N/A     79  79 100 SE3       30.00F
HAMMOND*       NOT AVBL
HOUMA*         PTCLDY    78  74  87 CALM      30.02F
PORT FOURCHON* CLEAR     84  75  74 S8        30.04F

$$

MSZ070-080>082-020600-
SOUTHERN MISSISSIPPI

CITY           SKY/WX    TMP DP  RH WIND       PRES   REMARKS
MCCOMB         MOCLDY    76  74  93 S7        30.03F
GULFPORT       MOCLDY    82  75  79 S6        30.02F
BILOXI         MOCLDY    83  75  76 S8        30.03F
PASCAGOULA     PTCLDY    74  74 100 CALM      30.04F FOG

$$

COASTAL OBSERVATIONS
LAKE AND NEARSHORE STATIONS

STATION/POSITION TIME  TEMP    WIND        PRES    WAVE
                       AIR SEA DIR/SP/G            HT/PER
                 (UTC) (F)     (DEG/KT/KT) (MB)    (FT/S)
PASCAGOULA       0400   85     160/  7/ 10 1016.8
WAVELAND YACHT   0400   83     180/  8/ 12 1016.3
GRAND ISLE       0400   84 85  180/  4/  8 1017.7
SOUTHWEST PASS   0400   84 90  170/  5/  8 1017.8
NEW CANAL        0400   79 81   CALM  /  4 1017.2
SHELL BEACH      0400   81 81  160/  4/  5 1016.9

OFFSHORE STATIONS

STATION/POSITION TIME  TEMP    WIND        PRES    WAVE
                       AIR SEA DIR/SP/G            HT/PER
                 (UTC) (F)     (DEG/KT/KT) (MB)    (FT/S)
64 S DAUPHIN ISL 0443   84 85  150/  8/ 10 1018.1

$$




USA.gov is the U.S. government's official web portal to all federal, state and local government web resources and services.